sat.trackr.live / text

‹ back to catalog

STARLINK-3238

NORAD 49734 · 2021-115L

PAYLOAD ACTIVE UNKNOWN

§ Identity

Operator
Country
US
Launch date
2021-12-02
Launch site
AFETR
Launch vehicle
Mass (kg)
RCS (m²)

Purposes: comms

External: N2YO · Heavens-Above · Gunter

§ Orbital elements

Epoch: 2026-09-12T17:08:52.725696Z

Period
94.01 min
Inclination
53.1612°
Eccentricity
0.0001072
Mean motion
15.31702481 rev/d
Perigee alt
470.0 km
Apogee alt
471.5 km
Semi-major
6,848.9 km
B*
2.7496e-5
RAAN
16.1695°
Arg perigee
75.1174°
Mean anomaly
284.9946°
Rev number
26,394

§ Raw data

STARLINK-32381 49734U 21115L   26255.71449914  .00000488  00000+0  27496-4 0  99972 49734  53.1612  16.1695 0001072  75.1174 284.9946 15.31702481263948

JSON: /api/v1/satellites/49734 · /tle

For live sub-satellite position, see the globe view (requires WebGL).

§ Visibility from observer

Set your observer location to see the next 7 days of passes ≥ 10°. The values pass through the URL so the page stays shareable.

No JS? Fill the form by hand. The geolocation button needs JavaScript.